Location: Rounton
(54.4000°N, 1.3500°W)
Time: 02:34:56
(UTC+00:00)

Vanguard 3 - Pass Details

Date: 05 December 2021
Orbit: 508 x 3260 km, 33.3° (Epoch: 19 January)

Event Time Altitude Azimuth Distance (km) Brightness Sun altitude
Exits shadow 01:07:51 14° 135° (SE) 5,863 11.3 -55.2°
Drops below altitude 10° 01:15:24 10° 112° (ESE) 6,102 11.6 -54.7°
Sets 01:23:30 0° 91° (E) 6,808 12.1 -54.0°
